Location: Grossmotten
(48.5500°N, 15.3833°E)
Time: 08:10:49
(UTC+00:00)

STARLINK-52 - Pass Details

Date: 15 November 2019
Orbit: 443 x 445 km, 53.0° (Epoch: 12 December)

Event Time Altitude Azimuth Distance (km) Brightness Sun altitude
Exits shadow 05:28:42 - 284° (WNW) 1,707 5.4 -6.4°
Reaches altitude 10° 05:29:03 10° 286° (WNW) 1,569 5.3 -6.4°
Maximum altitude 05:32:23 38° 357° (N) 691 4.0 -5.9°
Drops below altitude 10° 05:35:44 10° 68° (ENE) 1,571 6.7 -5.4°
Sets 05:37:57 0° 76° (ENE) 2,442 7.9 -5.0°
